Flag for Oman Weather past 2 weeks in Salalah, Oman

Now
82 °F

Passing clouds.


Feels Like: 81 °F
Forecast: 77 / 96 °F
Wind: 5 mph from Northwest

Location: Salalah Airport

Current Time: Oct 23, 2014 at 10:53:34 PM

Latest Report: Oct 23, 2014 at 9:50 PM


Visibility: N/A

Pressure: 29.92 "Hg

Humidity: 35%

Dew point: 52 °F

Location of SalalahLocation

Historic Weather in Salalah — Graph

°F

Salalah temperature yesterday

Maximum temperature yesterday: 88 °F (at 12:50 PM)
Minimum temperature yesterday: 75 °F (at 3:50 AM)
Average temperature yesterday: 82 °F

Past Weeks' High & Low Weather Summary

 TemperatureHumidityPressure
High95 °F (Oct 23, 10:50 AM)79% (Oct 9, 5:50 PM)30.04 "Hg (Oct 9, 5:50 PM)
Low72 °F (Oct 17, 5:50 AM)16% (Oct 23, 10:50 AM)29.80 "Hg (Oct 9, 1:50 PM)
Average82 °F61%29.89 "Hg
* Reported Oct 8 9:50 PM — Oct 23 9:50 PM, Salalah, Weather by CustomWeather, © 2014

Note: Actual official high and low records may vary slightly from our data, if they occured in-between our weather recording intervals... More about our weather records

Advertising

Salalah weather history for previous 24 hours

 ConditionsComfort  
Time TempWeatherWind HumidityBarometerVisibility
9:50 PM
Oct 23
82 °FPassing clouds.5 mph35%29.92 "HgN/A
8:50 PM82 °FClear.3 mph42%29.92 "Hg10 mi
7:50 PM84 °FWarm.2 mph55%29.92 "HgN/A
6:50 PM84 °FWarm.No wind48%29.89 "HgN/A
5:50 PM84 °FWarm.5 mph58%29.89 "HgN/A
4:50 PM90 °FPassing clouds.6 mph36%29.86 "HgN/A
3:50 PM90 °FPassing clouds.8 mph33%29.86 "HgN/A
2:50 PM90 °FPassing clouds.6 mph38%29.86 "HgN/A
1:50 PM88 °FPassing clouds.9 mph55%29.89 "HgN/A
12:50 PM88 °FSunny.12 mph52%29.92 "Hg10 mi
11:50 AM91 °FPassing clouds.8 mph34%29.95 "HgN/A
10:50 AM95 °FPassing clouds.6 mph16%29.95 "HgN/A
9:50 AM91 °FHot.3 mph24%29.98 "HgN/A
8:50 AM88 °FSunny.2 mph27%29.98 "Hg10 mi
7:50 AM82 °FSunny.No wind32%29.98 "Hg10 mi
6:50 AM75 °FSunny.2 mph50%29.95 "Hg10 mi
5:50 AM75 °FMild.3 mph47%29.92 "HgN/A
4:50 AM75 °FMild.3 mph47%29.92 "HgN/A
3:50 AM75 °FMild.1 mph61%29.92 "HgN/A
2:50 AM75 °FClear.3 mph65%29.92 "Hg10 mi
1:50 AM77 °FClear.2 mph54%29.92 "Hg10 mi
12:50 AM77 °FWarm.2 mph65%29.95 "HgN/A
11:50 PM
Oct 22
79 °FWarm.2 mph58%29.95 "HgN/A
10:50 PM81 °FWarm.5 mph58%29.95 "HgN/A
Weather by CustomWeather, © 2014

See weather overviewHow to use our weather pages